Flag for Trinidad and Tobago Weather past 2 weeks in Chaguanas, Trinidad and Tobago

Now
88 °F

Scattered showers. Scattered clouds.


Feels Like: 91 °F
Forecast: 77 / 90 °F
Wind: 14 mph from Southeast

Location: Piarco International Airport - Trinidad

Current Time: May 3, 2015 at 4:15:14 PM

Latest Report: May 3, 2015 at 3:00 PM


Visibility: N/A

Pressure: 29.89 "Hg

Humidity: 52%

Dew point: 68 °F

Location of ChaguanasLocation

Historic Weather in Chaguanas — Graph

°F

Chaguanas temperature yesterday

Maximum temperature yesterday: 91 °F (at 12:00 PM)
Minimum temperature yesterday: 73 °F (at 6:00 AM)
Average temperature yesterday: 82 °F

Past Weeks' High & Low Weather Summary

 TemperatureHumidityPressure
High91 °F (Apr 22, 12:00 PM)100% (Apr 19, 9:00 PM)29.98 "Hg (Apr 19, 9:00 PM)
Low72 °F (Apr 19, 9:00 PM)41% (May 2, 2:00 PM)29.86 "Hg (Apr 22, 5:00 PM)
Average82 °F73%29.92 "Hg
* Reported Apr 18 3:00 PM — May 3 3:00 PM, Chaguanas, Weather by CustomWeather, © 2015

Note: Actual official high and low records may vary slightly from our data, if they occured in-between our weather recording intervals... More about our weather records

Advertising

Chaguanas weather history for previous 24 hours

 ConditionsComfort  
Time TempWeatherWind HumidityBarometerVisibility
3:00 PM
Sun, May 3
88 °FScattered showers. Scattered clouds.14 mph52%29.89 "HgN/A
2:00 PM91 °FScattered clouds.16 mph46%29.92 "HgN/A
1:00 PM90 °FScattered clouds.16 mph52%29.95 "HgN/A
12:00 PM90 °FScattered clouds.16 mph52%29.95 "HgN/A
11:00 AM90 °FPartly sunny.17 mph52%29.98 "HgN/A
10:00 AM90 °FPassing clouds.18 mph55%29.98 "HgN/A
9:00 AM88 °FPassing clouds.21 mph59%29.95 "HgN/A
8:00 AM84 °FPassing clouds.17 mph70%29.95 "HgN/A
7:00 AM81 °FPassing clouds.14 mph79%29.92 "HgN/A
6:00 AM77 °FPassing clouds.12 mph89%29.89 "HgN/A
5:00 AM77 °FClear.9 mph89%29.89 "Hg10 mi
4:00 AM77 °FClear.9 mph89%29.89 "Hg10 mi
3:00 AM75 °FSmoke.No wind89%29.89 "HgN/A
2:00 AM75 °FPassing clouds.No wind89%29.89 "HgN/A
1:00 AM75 °FPassing clouds.No wind89%29.89 "HgN/A
12:00 AM75 °FPassing clouds.No wind89%29.92 "HgN/A
11:00 PM
Sat, May 2
77 °FPassing clouds.No wind83%29.92 "HgN/A
10:00 PM77 °FPassing clouds.No wind83%29.92 "HgN/A
9:00 PM79 °FPassing clouds.No wind79%29.92 "HgN/A
8:00 PM79 °FPassing clouds.5 mph79%29.89 "HgN/A
7:00 PM81 °FPassing clouds.No wind74%29.92 "HgN/A
6:00 PM82 °FPassing clouds.9 mph66%29.89 "HgN/A
5:00 PMN/AScattered clouds.12 mphN/AN/A4 mi
4:00 PM86 °FSprinkles. Partly sunny.14 mph59%29.86 "HgN/A
Weather by CustomWeather, © 2015

See weather overviewHow to use our weather pages